Location: Observatory
(49.4490°N, 2.6360°W)
Time: 14:15:26
(UTC+01:00)

DIWATA 2B (PO-101) - Pass Details

Date: 24 April 2025
Orbit: 567 x 578 km, 98.1° (Epoch: 15 May)

Event Time Altitude Azimuth Distance (km) Brightness Sun altitude
Rises 05:14:59 0° 155° (SSE) 2,761 ? -7.6°
Reaches altitude 10° 05:17:08 10° 152° (SSE) 1,867 ? -7.3°
Maximum altitude 05:21:07 62° 72° (ENE) 644 ? -6.7°
Drops below altitude 10° 05:25:08 10° 352° (N) 1,878 ? -6.1°
Sets 05:27:17 0° 349° (N) 2,780 ? -5.8°
